Regional Weather Roundup
Issued by NWS

Home | Current Version | Previous Version | Graphics & Text | Print | Product List | Glossary On
Versions: 1 2 3 4 5 6 7 8 9 10 11 12 13 14 15 16 17 18 19 20 21 22 23 24 25 26 27 28 29 30 31 32 33 34 35 36 37 38 39 40 41 42 43 44 45 46 47 48 49 50
000
ASUS43 KLOT 022310
RWRIL

ILLINOIS REGIONAL WEATHER ROUNDUP
NATIONAL WEATHER SERVICE CHICAGO/ROMEOVILLE IL
500 PM CST MON MAR 02 2015

NOTE: "FAIR" INDICATES FEW OR NO CLOUDS BELOW 12,000 FEET WITH NO
SIGNIFICANT WEATHER AND/OR OBSTRUCTIONS TO VISIBILITY.

* THESE STATIONS ARE NOT UNDER NWS QUALITY CONTROL. THEY ALSO MAY NOT
  REPORT WEATHER SUCH AS PRECIPITATION OR FOG.

ILZ001-002-007-009-015-016-024-030000-
NORTHWEST ILLINOIS

CITY           SKY/WX    TMP DP  RH WIND       PRES   REMARKS
MOLINE         CLOUDY    27  16  63 SE8       30.37F WCI  19
STERLING*      CLOUDY    27  18  69 SE6       30.38F WCI  20
SAVANNA*       CLOUDY    27  18  69 SE6       30.38F WCI  20
$$

ILZ003-004-008-010-011-017-018-030000-
NORTH CENTRAL ILLINOIS

CITY           SKY/WX    TMP DP  RH WIND       PRES   REMARKS
ROCKFORD       CLOUDY    25  14  63 S8        30.39F WCI  16
FREEPORT*      CLOUDY    25  16  68 CALM      30.39F
ROCHELLE*      MOCLDY    25  17  72 S7        30.39F WCI  17
DE KALB*       PTCLDY    24  15  68 S5        30.39F WCI  18
PERU*          CLOUDY    26  17  69 S10       30.40F WCI  16
$$

ILZ005-006-012>014-019>023-030000-
NORTHEAST ILLINOIS

CITY           SKY/WX    TMP DP  RH WIND       PRES   REMARKS
CHICAGO-OHARE  CLOUDY    28  17  63 E8        30.39S WCI  20
CHICAGO-MIDWAY CLOUDY    30  19  63 E8        30.41S WCI  22
AURORA         PTCLDY    27  13  55 S8        30.41F WCI  19
LANSING*       PTCLDY    29  16  56 S6        30.42S WCI  23
JOLIET*        PTCLDY    28  15  59 SW6       30.42S WCI  21
WAUKEGAN       PTCLDY    25  16  68 SE7       30.39F WCI  17
DUPAGE AIRPORT PTCLDY    28  14  55 SW8       30.39F WCI  20
KANKAKEE*      CLOUDY    26  17  69 S8        30.43S WCI  18
WHEELING       PTCLDY    27  16  63 SE7       30.41F WCI  19
MORRIS*        PTCLDY    26  17  68 S8        30.41F WCI  17
ROMEOVILLE*    MOCLDY    28  16  62 S8        30.41F WCI  20
NORTHERLY ISL    N/A     26  19  75 E3          N/A
$$

LMZ740>746-030000-
SOUTHERN LAKE MICHIGAN

STATION/POSITION SKY/WX   TEMP    WIND        PRES    VSBY  WAVE
                          AIR SEA DIR/SP/G                  HT/PER
                          (F)     (DEG/KT/KT) (MB)    (MI)  (FT/S)
WAUKEGAN HARBOR            26     140/  7/ 13   N/A
HARRISON CRIB              25     100/  9/ 10   N/A
BURNHAM HARBOR             26     100/  4/  8   N/A
CALUMET HARBOR             27      80/  5/  8 1028.5F
MICHIGAN CITY              23      40/  6/  6   N/A
$$

ILZ025>027-034>036-040-047-049-050-058-095>099-030000-
WEST-CENTRAL ILLINOIS

CITY           SKY/WX    TMP DP  RH WIND       PRES   REMARKS
QUINCY         MOCLDY    32  18  56 SE8       30.35F WCI  25
GALESBURG*     CLOUDY    29  18  64 E5        30.36F WCI  24
MACOMB*        MOCLDY    28  19  69 SE7       30.40S WCI  21
JACKSONVILLE*  PTCLDY    32  20  62 E9        30.38F WCI  24
PITTSFIELD*    MOCLDY    33  20  60 E7        30.37F WCI  26
$$

ILZ028>032-037-038-041>044-048-051>054-059>061-030000-
CENTRAL ILLINOIS

CITY           SKY/WX    TMP DP  RH WIND       PRES   REMARKS
PONTIAC        CLOUDY    25  19  78 SE7       30.42F WCI  17
BLOOMINGTON    PTCLDY    25  19  77 SE7       30.39F WCI  17
DECATUR        MOCLDY    27  21  78 E7        30.40F WCI  19
PEORIA         CLOUDY    30  18  60 S9        30.38F WCI  22
LACON*         CLOUDY    25  16  69 SE6       30.39F WCI  18
LINCOLN*       MOCLDY    29  23  77 SE5       30.42F WCI  24
SPRINGFIELD    MOCLDY    31  20  63 SE9       30.40F WCI  23
TAYLORVILLE    MOCLDY    30  19  64 E6        30.40F WCI  24
$$

ILZ033-039-045-046-055>057-062-063-030000-
EAST-CENTRAL ILLINOIS

CITY           SKY/WX    TMP DP  RH WIND       PRES   REMARKS
CHAMPAIGN      MOCLDY    26  18  71 E3        30.41F
DANVILLE*      CLOUDY    25  18  76 E3        30.39F
RANTOUL*       MOCLDY    26  19  76 CALM      30.42F
MATTOON        PTCLDY    28  19  69 NE5       30.39F WCI  23
PARIS*         MOCLDY    29  21  73 CALM      30.43F
$$

ILZ079-100>102-030000-
SOUTHWEST ILLINOIS

CITY           SKY/WX    TMP DP  RH WIND       PRES   REMARKS
ALTON          MOCLDY    32  14  47 E9        30.38F WCI  24
BELLEVILLE     CLOUDY    33  20  59 NE6       30.37F WCI  27
CAHOKIA*       CLOUDY    33  20  58 SE7       30.38F WCI  27
SPARTA*        CLOUDY    31  19  60 E6        30.39S WCI  26
$$

ILZ064>066-069>071-074>076-080>082-084>086-088>090-092>094-030000-
SOUTH-CENTRAL ILLINOIS

CITY           SKY/WX    TMP DP  RH WIND       PRES   REMARKS
CARBONDALE     CLOUDY    37  22  54 E6        30.38F WCI  32
CAIRO*         CLOUDY    40  21  47 NE7       30.36F
EFFINGHAM*     MOCLDY    31  15  50 E7        30.42F WCI  24
MARION         MOCLDY    37  23  56 E9        30.39F WCI  31
MT. VERNON     CLOUDY    30  18  59 NE9       30.39F WCI  22
CENTRALIA*     CLOUDY    32  18  55 E7        30.38F WCI  26
SALEM*         CLOUDY    34  19  53 NE7       30.39F WCI  28
METROPOLIS*    MOCLDY    38  22  51 CALM      30.36F
$$

ILZ067-068-072-073-078-083-087-091-030000-
SOUTHEAST ILLINOIS

CITY           SKY/WX    TMP DP  RH WIND       PRES   REMARKS
LAWRENCEVILLE  PTCLDY    32  20  61 NE7       30.43F WCI  26
FLORA*         PTCLDY    31  20  63 NE7       30.41F WCI  24
FAIRFIELD*     CLOUDY    32  19  58 NE7       30.39F WCI  26
HARRISBURG*    MOCLDY    35  22  61 E7        30.39F WCI  29
ROBINSON*      CLEAR     31  20  63 CALM      30.44F
CARMI*         MOCLDY    34  27  74 N8        30.39F WCI  27
$$

ABBREVIATIONS USED IN REMARKS
   TC - TEMPERATURE IN CELSIUS
  WCI - WIND CHILL INDEX
   HX - HEAT INDEX
  VSB - VISIBILITY
$$




USA.gov is the U.S. government's official web portal to all federal, state and local government web resources and services.